Location: Helsinki
(60.1699°N, 24.9384°E)
Time: 23:17:32
(UTC+02:00)

Transit 4A - Pass Details

Date: 28 October 2020
Orbit: 862 x 982 km, 66.8° (Epoch: 30 November)

Event Time Altitude Azimuth Distance (km) Brightness Sun altitude
Rises 19:07:36 0° 269° (W) 3,659 12.6 -19.5°
Reaches altitude 10° 19:10:15 10° 275° (W) 2,724 11.6 -19.8°
Maximum altitude 19:16:27 50° 350° (N) 1,244 8.6 -20.6°
Enters shadow 19:20:02 25° 53° (NE) 1,880 9.1 -21.1°
